Location: Haliburton Scout Reserve
(45.0900°N, 78.3200°W)
Time: 17:51:43
(UTC-04:00)

YUBILEINY - Pass Details

Date: 04 December 2023
Orbit: 1478 x 1508 km, 82.5° (Epoch: 06 October)

Event Time Altitude Azimuth Distance (km) Brightness Sun altitude
Rises 21:03:46 0° 349° (NNW) 4,627 ? -47.0°
Reaches altitude 10° 21:06:41 10° 347° (NNW) 3,640 ? -47.5°
Enters shadow 21:09:32 24° 343° (NNW) 2,713 ? -47.9°
